Вернуться в каталог

STARLINK-35649

АктивенСвязьVLEO
NORAD 66125·PAYLOAD·🇺🇸 United States

Запущен Oct 22, 2025 с Vandenberg Space Force Base

Loading…

Ближайшие Пролёты (ближайшие 24 часа)

TLE

СвежийSource: CelesTrak SupGP

Эпоха: Sep 14, 2026, 22:59 UTC

1 66125C 25237M   26257.95812500  .00024367  00000+0  71978-3 0  2574
2 66125  53.1567 237.4376 0001307 104.7467 174.8498 15.34384426    13

Отслеживайте STARLINK-35649 в реальном времени с AllMySat

Download on the App Store